{"data":{"norad_id":36112,"intl_designator":"2009-070B","name":"COSMOS 2457 (733)","alt_names":[],"object_type":"PAYLOAD","status":"ACTIVE","operator":null,"country":"CIS","launch_date":"2009-12-14","launch_site_code":"TYMSC","launch_vehicle":null,"mission":null,"orbit_class":"UNKNOWN","rcs_meters":6.3096,"size_class":null,"mass_kg":null,"dimensions":null,"purposes":["nav"],"wikipedia_slug":null,"has_3d_model":false,"image_url":null,"decayed_at":null,"tle_current":{"epoch":"2026-05-24T11:01:15.076992Z","epoch_age_seconds":117782,"freshness":"FRESH","line1":"1 36112U 09070B   26144.45920228 -.00000038  00000+0  00000+0 0  9998","line2":"2 36112  64.9840  71.6253 0001878 127.8852  52.6374  2.13100931127925","mean_motion":2.13100931,"eccentricity":0.0001878,"inclination_deg":64.984,"raan_deg":71.6253,"arg_perigee_deg":127.8852,"mean_anomaly_deg":52.6374,"bstar":0,"rev_number":12792,"period_min":675.73613744559,"perigee_km":19125.182310127,"apogee_km":19134.763156143,"semimajor_km":25508.109733135,"source":"CELESTRAK","updated_at":"2026-05-25T13:38:23.890665Z"}}}